STARLINK-32891, 62927

Orbit data source: Space-Track

STARLINK-32891, 62927 is a payload satellite owned by SpaceX/Seattle (US) in LEO that was launched on Sat, 08 Feb 2025 UTC via an FALCON 9 launch vehicle from the Air Force Eastern Test Range (AFETR). Payload-class satellites include a variety of spacecraft equipped with specific instruments for various scientific and technological missions. These include communications satellites like Starlink; space stations such as the ISS; scientific satellites like the Hubble; Earth observation satellites from companies like Planet Labs, Umbra, and HawkEye 360; GPS; miniature CubeSats for education and research; and military/defense satellites.

Loading next visibility...
Identifier
62927, 2025-027W
Orbit
LEO
Country
Flag of USUS
Related business
Manufacturer
SpaceX/Seattle
Mission
Operational Commercial Communications
Bus & Motor
STARLINK V2M, Unknown motor
Mass
730 kg wet, ~700 kg dry
Launch date (UTC)
2025-02-08 (8 months ago)
Launch vehicle
FALCON 9
Launch site
Air Force Eastern Test Range (AFETR)
Object type
Payload
Rocket body
Debris
Shape & HBR
Box + 2 Pan, 17.7 m
Radar Cross Section
33.884 m², Large (>1 m²)

Expand to show TLE details & history
Last TLE update: 20 hours ago

TLE from 20 hours ago
0 STARLINK-32891
1 62927U 25027W   25291.82805694  .00053922  00000-0  19526-2 0  9999
2 62927  43.0005 210.2690 0000194  62.1495 297.9376 15.27615076 39961
Epoch: 2025-10-18T19:52Z
TLE epoch observation values (Epoch: 2025-10-18T19:52:24.119Z)
Latitude
-0.00004°
Longitude
-115.38502°
Altitude
482.657 km
Speed
7.626 km/s
True Right ascension
14h 01m 04s
True Declination
0° 00' 00"
Sunlit
Object was in daylight at epoch
Visualization orbit readout
Latitude
Unknown
Longitude
Unknown
Altitude
Unknown
Speed
Unknown
Apparent Right ascension
Unknown
Apparent Declination
Unknown
Sunlit
N/A
Visualization observer readout
Local Sidereal Time
10:54:32
Azimuth
Unknown
Elevation
Unknown
Doppler factor
Unknown
Orbital elements
Apogee altitude
485.022 km
Perigee altitude
484.756 km
Semi-major axis
6,863.026 km
Eccentricity
0.00002
Inclination
43.0005°
RAAN
210.269°
Arg. of periapsis
62.1495°
True anomaly
297.93564°
Mean anomaly
297.9376°
Eccentric anomaly
297.93662°
Mean motion
3.81742 °/min
Orbital period
94.3 mins
BSTAR
0.0019526
Loading maneuver chart data...
Computing Atmospheric mass density...
Loading historical data...
Loading historical data...
Loading historical data...
Loading historical data...
Loading historical data...
Loading historical data...
Loading historical data...

Documentation

Showing up to 5 results
|